Location: Columbia
(38.9520°N, 92.3340°W)
Time: 02:59:35
(UTC-05:00)

SL-08 RB Rocket - Visible Passes

Search period start: 17 August 2017 00:00
Search period end: 27 August 2017 00:00
Orbit: 647 x 686 km, 98.0° (Epoch: 16 August)

Date Brightness Start Highest point End Pass type
(mag) Time Alt. Az. Time Alt. Az. Time Alt. Az.
17 Aug 5.3 21:19:25 17° E 21:20:29 18° ENE 21:23:33 10° NNE visible
17 Aug 4.7 22:57:34 42° W 22:57:34 42° W 23:01:32 10° NNW visible
18 Aug 4.4 21:51:31 36° E 21:51:51 36° ENE 21:56:02 10° N visible
18 Aug 5.9 23:29:39 19° W 23:29:39 19° W 23:32:19 10° NW visible
19 Aug 3.7 22:23:36 77° NNE 22:23:36 77° NNE 22:27:55 10° N visible
20 Aug 5.4 21:17:33 16° ENE 21:18:19 17° ENE 21:21:15 10° NNE visible
20 Aug 4.8 22:55:41 42° WNW 22:55:41 42° WNW 22:59:22 10° NNW visible
21 Aug 4.5 21:49:38 35° ENE 21:49:40 35° ENE 21:53:48 10° N visible
21 Aug 6.0 23:27:46 19° WNW 23:27:46 19° WNW 23:30:12 10° NW visible
22 Aug 3.8 22:21:43 66° NNE 22:21:43 66° NNE 22:25:42 10° N visible
23 Aug 5.4 21:15:40 16° ENE 21:16:09 16° ENE 21:18:56 10° NNE visible
23 Aug 4.9 22:53:48 40° WNW 22:53:48 40° WNW 22:57:11 10° NNW visible
24 Aug 4.6 21:47:45 33° ENE 21:47:45 33° ENE 21:51:32 10° N visible
24 Aug 6.0 23:25:53 19° WNW 23:25:53 19° WNW 23:28:04 10° NW visible
25 Aug 4.1 22:19:51 56° NNE 22:19:51 56° NNE 22:23:30 10° N visible
26 Aug 5.5 21:13:48 15° ENE 21:13:59 15° ENE 21:16:38 10° NNE visible
26 Aug 5.0 22:51:56 37° NW 22:51:56 37° NW 22:55:01 10° NNW visible
